Meteo Giornale » Osservazioni meteo Marocco » Dakhla Airport
ore: 15:00 - Osservazioni Meteo Dakhla Airport
Lat. 23° 43' N Lon. 15° 56' W Alt. 11 metri s.l.m.
25 °C
Nuvoloso
Temp. 24 Ore
20 °C
25 °C
Nord
44.4 Km/h
Dew point 19 °C
Umidità 69 %
Visibilità 8 Km
Il sole sorge alle ore 07:45
Il sole tramonta alle ore 20:21
| Data e Ora | Cielo e Fenomeni | T °C | DP °C | Um. % | Pres. hPa | Vis. km | Vento km/h | |
|---|---|---|---|---|---|---|---|---|
| Oggi h: 15:00 | Nuvoloso | 25 | 19 | 69 | 1013 | 8 | N 44.4 | |
| Oggi h: 14:00 | Sereno | 24 | 20 | 78 | 1014 | 8 | N/NE 46.3 | |
| Oggi h: 13:00 | Nuvoloso | 25 | 20 | 73 | 1015 | 8 | N/NE 48.1 | |
| Oggi h: 12:31 | Nuvoloso | 24 | 20 | 78 | 1015 | 8 | N/NE 42.6 | |
| Oggi h: 12:00 | Molto Nuvoloso | 23 | 20 | 83 | 1015 | 8 | N/NE 40.7 | |
| Oggi h: 11:42 | Molto Nuvoloso | 23 | 20 | 83 | 1015 | 8 | N/NE 40.7 | |
| Oggi h: 11:00 | Nuvoloso | 22 | 19 | 83 | 1015 | 8 | N 38.8 | |
| Oggi h: 10:23 | Nuvoloso | 23 | 19 | 78 | 1015 | 8 | N/NE 40.7 | |
| Oggi h: 10:00 | Molto Nuvoloso | 22 | 19 | 83 | 1015 | 6 | N/NE 40.7 | |
| Oggi h: 09:13 | Molto Nuvoloso | 21 | 19 | 88 | 1015 | 5 | N/NE 35.2 | |
| Oggi h: 09:00 | Foschia | 20 | 19 | 93 | 1015 | 4 | N/NE 33.3 | |
| Oggi h: 08:00 | Foschia | 20 | 19 | 93 | 1014 | 4 | NE 38.8 | |
| Oggi h: 07:33 | Foschia | 20 | 19 | 93 | 1014 | 4 | NE 38.8 | |
| Oggi h: 07:00 | Nuvoloso | 20 | 19 | 93 | 1013 | 6 | NE 40.7 | |
| Oggi h: 06:00 | Sereno | 21 | 19 | 88 | 1013 | 10 | N/NE 35.2 | |
| Oggi h: 05:00 | Sereno | 21 | 20 | 94 | 1013 | 10 | NE 40.7 | |
| Oggi h: 04:00 | Sereno | 21 | 20 | 94 | 1014 | 10 | NE 38.8 | |
| Oggi h: 03:00 | Sereno | 21 | 20 | 94 | 1014 | 6 | NE 42.6 | |
| Oggi h: 02:00 | Sereno | 21 | 20 | 94 | 1014 | 6 | N/NE 38.8 | |
| Oggi h: 01:00 | Sereno | 21 | 20 | 94 | 1015 | 6 | N/NE 35.2 | |
| Oggi h: 00:00 | Sereno | 21 | 20 | 94 | 1015 | 8 | N/NE 35.2 | |
| Ieri h: 23:00 | Sereno | 20 | 19 | 93 | 1015 | 8 | N/NE 27.8 | |
| Ieri h: 22:00 | Sereno | 21 | 20 | 94 | 1015 | 8 | N/NE 31.5 | |
| Ieri h: 21:00 | Sereno | 21 | 19 | 88 | 1014 | 8 | N 27.8 | |
| Ieri h: 20:00 | Sereno | 21 | 19 | 88 | 1014 | 8 | N/NE 33.3 | |
| Ieri h: 19:00 | Sereno | 22 | 19 | 83 | 1014 | 8 | N/NE 35.2 | |
| Ieri h: 18:00 | Sereno | 23 | 19 | 78 | 1013 | 8 | N/NE 40.7 | |
| Ieri h: 17:00 | Sereno | 23 | 19 | 78 | 1014 | 8 | N/NE 40.7 | |



